Stündliche Wetter Cayo Levantado

Heute, 22 Januar, Freitag

Zeit Temperatur Niederschläge Wind Luftdruck Luftfeuchtigkeit
00:00 +23°C° 0 mm 2 m/S 747 mmHg 90%
01:00 +23°C° 0 mm 2 m/S 747 mmHg 91%
02:00 +23°C° 0.2 mm 2 m/S 746 mmHg 91%
03:00 +23°C° 0.2 mm 2 m/S 746 mmHg 91%
04:00 +23°C° 0.2 mm 2 m/S 746 mmHg 91%
05:00 +23°C° 0.2 mm 2 m/S 747 mmHg 91%
06:00 +23°C° 0.2 mm 2 m/S 747 mmHg 91%
07:00 +23°C° 0.2 mm 2 m/S 748 mmHg 91%
08:00 +24°C° 0.1 mm 2 m/S 748 mmHg 87%
09:00 +25°C° 0.1 mm 2 m/S 748 mmHg 83%
10:00 +26°C° 0.1 mm 3 m/S 748 mmHg 79%
11:00 +27°C° 0 mm 3 m/S 748 mmHg 73%
12:00 +28°C° 0 mm 3 m/S 747 mmHg 66%
13:00 +29°C° 0 mm 3 m/S 747 mmHg 60%
14:00 +28°C° 0 mm 3 m/S 747 mmHg 62%
15:00 +27°C° 0 mm 3 m/S 746 mmHg 65%
16:00 +27°C° 0 mm 3 m/S 746 mmHg 67%
17:00 +26°C° 0 mm 3 m/S 746 mmHg 74%
18:00 +25°C° 0 mm 3 m/S 747 mmHg 80%
19:00 +22°C° 0 mm 3 m/S 747 mmHg 87%
20:00 +22°C° 0 mm 3 m/S 747 mmHg 87%
21:00 +24°C° 0 mm 3 m/S 747 mmHg 88%
22:00 +24°C° 0 mm 3 m/S 747 mmHg 89%
23:00 +23°C° 0 mm 2 m/S 747 mmHg 90%

Morgen, 23 Januar, Samstag

Zeit Temperatur Niederschläge Wind Luftdruck Luftfeuchtigkeit
00:00 +23°C° 0 mm 2 m/S 747 mmHg 91%
01:00 +23°C° 0 mm 2 m/S 747 mmHg 92%
02:00 +23°C° 0.1 mm 2 m/S 747 mmHg 92%
03:00 +23°C° 0.1 mm 2 m/S 747 mmHg 92%
04:00 +23°C° 0.1 mm 2 m/S 747 mmHg 92%
05:00 +23°C° 0.1 mm 2 m/S 747 mmHg 92%
06:00 +23°C° 0.1 mm 2 m/S 748 mmHg 91%
07:00 +24°C° 0.1 mm 2 m/S 748 mmHg 91%
08:00 +25°C° 0.1 mm 2 m/S 749 mmHg 86%
09:00 +25°C° 0.1 mm 2 m/S 749 mmHg 81%
10:00 +26°C° 0.1 mm 3 m/S 749 mmHg 75%
11:00 +27°C° 0 mm 3 m/S 748 mmHg 71%
12:00 +28°C° 0 mm 3 m/S 748 mmHg 67%
13:00 +28°C° 0 mm 3 m/S 747 mmHg 62%
14:00 +28°C° 0 mm 3 m/S 747 mmHg 64%
15:00 +27°C° 0 mm 3 m/S 747 mmHg 66%
16:00 +27°C° 0 mm 3 m/S 746 mmHg 67%
17:00 +26°C° 0 mm 3 m/S 747 mmHg 73%
18:00 +25°C° 0 mm 3 m/S 747 mmHg 79%
19:00 +22°C° 0 mm 3 m/S 747 mmHg 85%
20:00 +22°C° 0 mm 3 m/S 748 mmHg 86%
21:00 +22°C° 0 mm 3 m/S 748 mmHg 88%
22:00 +22°C° 0 mm 3 m/S 748 mmHg 89%
23:00 +22°C° 0 mm 3 m/S 748 mmHg 89%

übermorgen, 24 Januar, Sonntag

Zeit Temperatur Niederschläge Wind Luftdruck Luftfeuchtigkeit
00:00 +23°C° 0 mm 2 m/S 748 mmHg 90%
01:00 +23°C° 0 mm 2 m/S 747 mmHg 91%
02:00 +23°C° 0.1 mm 2 m/S 747 mmHg 90%
03:00 +23°C° 0.1 mm 2 m/S 747 mmHg 90%
04:00 +23°C° 0.1 mm 2 m/S 747 mmHg 90%
05:00 +23°C° 0.1 mm 2 m/S 747 mmHg 89%
06:00 +23°C° 0.1 mm 2 m/S 748 mmHg 88%
07:00 +23°C° 0.1 mm 2 m/S 748 mmHg 86%
08:00 +25°C° 0 mm 3 m/S 748 mmHg 78%
09:00 +26°C° 0 mm 3 m/S 749 mmHg 70%
10:00 +27°C° 0 mm 3 m/S 749 mmHg 61%
11:00 +27°C° 0 mm 3 m/S 748 mmHg 61%
12:00 +28°C° 0 mm 3 m/S 748 mmHg 61%
13:00 +28°C° 0 mm 3 m/S 747 mmHg 61%
14:00 +27°C° 0 mm 3 m/S 747 mmHg 64%
15:00 +27°C° 0 mm 3 m/S 746 mmHg 67%
16:00 +26°C° 0 mm 3 m/S 746 mmHg 70%
17:00 +25°C° 0 mm 3 m/S 747 mmHg 74%
18:00 +24°C° 0 mm 3 m/S 747 mmHg 78%
19:00 +24°C° 0 mm 3 m/S 747 mmHg 82%
20:00 +22°C° 0 mm 3 m/S 748 mmHg 83%
21:00 +22°C° 0 mm 3 m/S 748 mmHg 84%
22:00 +22°C° 0 mm 3 m/S 748 mmHg 85%
23:00 +22°C° 0 mm 3 m/S 748 mmHg 86%

25 Januar, Montag

Zeit Temperatur Niederschläge Wind Luftdruck Luftfeuchtigkeit
00:00 +22°C° 0 mm 3 m/S 747 mmHg 88%
01:00 +22°C° 0 mm 3 m/S 747 mmHg 90%
02:00 +22°C° 0.1 mm 3 m/S 747 mmHg 90%
03:00 +22°C° 0.1 mm 4 m/S 747 mmHg 90%
04:00 +22°C° 0.1 mm 4 m/S 747 mmHg 91%
05:00 +22°C° 0.1 mm 4 m/S 747 mmHg 90%
06:00 +22°C° 0.1 mm 4 m/S 748 mmHg 89%
07:00 +22°C° 0.1 mm 4 m/S 748 mmHg 89%
08:00 +23°C° 0 mm 4 m/S 748 mmHg 82%
09:00 +25°C° 0 mm 4 m/S 749 mmHg 75%
10:00 +27°C° 0 mm 4 m/S 749 mmHg 68%
11:00 +27°C° 0 mm 4 m/S 748 mmHg 66%
12:00 +27°C° 0 mm 4 m/S 748 mmHg 64%
13:00 +27°C° 0 mm 4 m/S 747 mmHg 62%
14:00 +27°C° 0 mm 4 m/S 747 mmHg 64%
15:00 +26°C° 0 mm 4 m/S 747 mmHg 66%
16:00 +26°C° 0 mm 4 m/S 746 mmHg 68%
17:00 +25°C° 0 mm 4 m/S 747 mmHg 72%
18:00 +23°C° 0 mm 4 m/S 747 mmHg 76%
19:00 +22°C° 0 mm 4 m/S 747 mmHg 81%
20:00 +22°C° 0 mm 4 m/S 748 mmHg 81%
21:00 +22°C° 0 mm 4 m/S 748 mmHg 82%
22:00 +21°C° 0 mm 4 m/S 748 mmHg 83%
23:00 +22°C° 0 mm 4 m/S 748 mmHg 84%

26 Januar, Dienstag

Zeit Temperatur Niederschläge Wind Luftdruck Luftfeuchtigkeit
00:00 +22°C° 0 mm 3 m/S 748 mmHg 85%
01:00 +22°C° 0 mm 3 m/S 747 mmHg 87%
02:00 +22°C° 0 mm 3 m/S 747 mmHg 87%
03:00 +22°C° 0 mm 3 m/S 747 mmHg 88%
04:00 +21°C° 0 mm 3 m/S 747 mmHg 88%
05:00 +22°C° 0.1 mm 3 m/S 748 mmHg 89%
06:00 +22°C° 0.1 mm 3 m/S 748 mmHg 89%
07:00 +22°C° 0.1 mm 3 m/S 749 mmHg 89%
08:00 +24°C° 0.1 mm 3 m/S 749 mmHg 85%
09:00 +25°C° 0.1 mm 4 m/S 749 mmHg 81%
10:00 +27°C° 0.1 mm 4 m/S 749 mmHg 77%
11:00 +27°C° 0.1 mm 4 m/S 749 mmHg 73%
12:00 +28°C° 0.1 mm 5 m/S 748 mmHg 69%
13:00 +28°C° 0.1 mm 5 m/S 748 mmHg 66%
14:00 +28°C° 0 mm 5 m/S 747 mmHg 69%
15:00 +27°C° 0 mm 5 m/S 747 mmHg 73%
16:00 +27°C° 0 mm 5 m/S 747 mmHg 76%
17:00 +26°C° 0 mm 4 m/S 747 mmHg 80%
18:00 +25°C° 0 mm 4 m/S 747 mmHg 84%
19:00 +23°C° 0 mm 4 m/S 748 mmHg 88%
20:00 +23°C° 0 mm 4 m/S 748 mmHg 88%
21:00 +23°C° 0 mm 4 m/S 748 mmHg 89%
22:00 +23°C° 0 mm 4 m/S 748 mmHg 89%
23:00 +24°C° 0 mm 3 m/S 748 mmHg 90%

27 Januar, Mittwoch

Zeit Temperatur Niederschläge Wind Luftdruck Luftfeuchtigkeit
00:00 +22°C° 0 mm 3 m/S 748 mmHg 90%
01:00 +22°C° 0 mm 3 m/S 748 mmHg 91%
02:00 +22°C° 0 mm 3 m/S 748 mmHg 90%
03:00 +22°C° 0 mm 3 m/S 748 mmHg 89%
04:00 +21°C° 0 mm 3 m/S 748 mmHg 88%
05:00 +22°C° 0 mm 3 m/S 748 mmHg 87%
06:00 +22°C° 0 mm 3 m/S 749 mmHg 86%
07:00 +22°C° 0 mm 3 m/S 749 mmHg 85%
08:00 +24°C° 0 mm 3 m/S 749 mmHg 79%
09:00 +25°C° 0 mm 4 m/S 750 mmHg 72%
10:00 +27°C° 0 mm 4 m/S 750 mmHg 66%
11:00 +27°C° 0 mm 4 m/S 749 mmHg 65%
12:00 +27°C° 0 mm 4 m/S 749 mmHg 63%
13:00 +28°C° 0 mm 4 m/S 748 mmHg 62%
14:00 +27°C° 0 mm 4 m/S 748 mmHg 64%
15:00 +27°C° 0 mm 4 m/S 748 mmHg 66%
16:00 +26°C° 0 mm 4 m/S 747 mmHg 68%
17:00 +25°C° 0 mm 4 m/S 748 mmHg 72%
18:00 +24°C° 0 mm 3 m/S 748 mmHg 77%
19:00 +22°C° 0 mm 3 m/S 748 mmHg 82%
20:00 +22°C° 0 mm 3 m/S 748 mmHg 83%
21:00 +21°C° 0 mm 3 m/S 748 mmHg 84%
22:00 +21°C° 0 mm 3 m/S 748 mmHg 84%
23:00 +21°C° 0 mm 3 m/S 748 mmHg 84%
Mehr zeigen

Wir brauchen deine Erlaubnis

Meteoprog und unser Service Anbieter werden persönliche Daten aufbewahren, so wie Cookies, Geräte Bezeichnung oder ähnliche Technologien von deinem Gerät und Prozess, so wie Persönliche Daten Inhalte und Werbungen, genauso wie social Media und den Verkehr zu analysieren.

  • Aufbewahrung und/oder Zugang zu deiner Geräte Informationen.

    Cookies, Geräte Bezeichnung oder andere Informationen, können aufbewahrt oder Zugang zu deinem Gerät erhalten, für den Grund, der oben angegeben wird.

  • Personalisierte Werbung und Inhalte, Messungen, Einblick in das Publikum und Produkt Entwicklung.

    Werbungen und Inhalte können personalisiert werden, basierend auf ein Profil. Mehr Daten können besser personalisierte Werbungen und Inhalte hinzufügen. Werbung und Inhalte können gezeigt und gemessen werden. Einblicke über das Publikum, welche die Werbung gesehen haben und den Inhalt, können abgeleitet werden. So wie Daten können genutzt werden, um es zu verbessern oder die Benutzer Erfahrung zu verbessern das System und die Software.

Wenn du “Ich stimme zu” klickst, erlaubst du uns, die Cookies zu benutzen die Geräte Bezeichnung, den Web oder ähnliche Technologien zu benutzen. Deine Settings, können in deinem Gerät bei deinem Browser geändert werden.

Für den bestimmten Zweck, berechtigten Interessen beruhen darauf, mehr als auf den Inhalt. Du kannst mehr darüber in unseren Privaten und Cookie Politik lesen.